User: anonymous   Login
Location: Unspecified
(0.0000°N, 0.0000°E)
Time: 12:08:19
(UTC+02:00)
Language:

Cosmos 1758 - Orbit

View from above orbital plane
View from above orbital plane
View from above satellite
View from above satellite

Ground track
Ground track

The orbit data is extracted from the following two-line orbital elements,

1 16791U 86046A   14295.74768639  .00005210  00000-0  39914-3 0  1662
2 16791 082.4706 254.2785 0019237 135.5225 224.7549 15.01521840540167
Epoch (UTC): 22 October 2014 17:56:40
Eccentricity: 0.0019237
inclination: 82.4706°
perigee height: 549 km
apogee height: 575 km
right ascension of ascending node: 254.2785°
argument of perigee: 135.5225°
revolutions per day: 15.01521840
mean anomaly at epoch: 224.7549°
orbit number at epoch: 54016

The dashed part of the orbit path shows where the satellite is in the earth's shadow,  

DLR